| time (UTC) | temp F | wind direction | speed MPH | gust MPH | rain 1hr in | rain 24hr in | rain mn in | humidity % | barometer mb |
| 20260508154554 | 65 | 51 | 2.0 | 7.0 | 0.00 | 0.00 | 0.00 | 36 | 1018.0 |
| 20260508153056 | 65 | 67 | 1.0 | 6.0 | 0.00 | 0.00 | 0.00 | 40 | 1018.1 |
| 20260508151552 | 68 | 260 | 0.0 | 4.0 | 0.00 | 0.00 | 0.00 | 47 | 1018.2 |
| 20260508150056 | 64 | 0 | 0.0 | 4.0 | 0.00 | 0.00 | 0.00 | 49 | 1018.4 |
| 20260508144552 | 65 | 258 | 0.0 | 5.0 | 0.00 | 0.00 | 0.00 | 51 | 1018.5 |
| 20260508143051 | 64 | 20 | 1.0 | 4.0 | 0.00 | 0.00 | 0.00 | 48 | 1018.5 |
| 20260508141558 | 63 | 0 | 1.0 | 3.0 | 0.00 | 0.00 | 0.00 | 52 | 1018.4 |
| 20260508140050 | 63 | 328 | 1.0 | 3.0 | 0.00 | 0.00 | 0.00 | 51 | 1018.4 |
| 20260508134557 | 63 | 289 | 0.0 | 4.0 | 0.00 | 0.01 | 0.00 | 59 | 1018.3 |
| 20260508133052 | 62 | 0 | 0.0 | 2.0 | 0.00 | 0.01 | 0.00 | 59 | 1018.3 |
| 20260508131557 | 61 | 279 | 0.0 | 2.0 | 0.00 | 0.01 | 0.00 | 62 | 1018.3 |
| 20260508130105 | 59 | 0 | 0.0 | 2.0 | 0.00 | 0.01 | 0.00 | 69 | 1018.2 |
| 20260508124549 | 57 | 0 | 0.0 | 3.0 | 0.00 | 0.08 | 0.00 | 74 | 1018.2 |
| 20260508123052 | 56 | 223 | 0.0 | 1.0 | 0.00 | 0.08 | 0.00 | 75 | 1018.1 |
| 20260508121554 | 55 | 0 | 0.0 | 4.0 | 0.00 | 0.08 | 0.00 | 82 | 1018.0 |
| 20260508120050 | 52 | 0 | 0.0 | 1.0 | 0.00 | 0.08 | 0.00 | 87 | 1017.8 |
| 20260508114549 | 49 | 0 | 0.0 | 1.0 | 0.00 | 0.21 | 0.00 | 92 | 1017.6 |
| 20260508113053 | 47 | 0 | 0.0 | 0.0 | 0.00 | 0.21 | 0.00 | 97 | 1017.2 |
| 20260508111551 | 43 | 0 | 0.0 | 0.0 | 0.00 | 0.21 | 0.00 | 97 | 1017.0 |
| 20260508110105 | 41 | 0 | 0.0 | 0.0 | 0.00 | 0.21 | 0.00 | 96 | 1016.9 |
| 20260508104550 | 41 | 0 | 0.0 | 0.0 | 0.00 | 0.21 | 0.00 | 96 | 1016.6 |
| 20260508103050 | 41 | 0 | 0.0 | 0.0 | 0.00 | 0.21 | 0.00 | 96 | 1016.2 |
| 20260508101555 | 41 | 0 | 0.0 | 0.0 | 0.00 | 0.21 | 0.00 | 96 | 1015.9 |
| 20260508100051 | 41 | 0 | 0.0 | 0.0 | 0.00 | 0.21 | 0.00 | 96 | 1015.9 |
| 20260508094556 | 42 | 0 | 0.0 | 0.0 | 0.00 | 0.21 | 0.00 | 96 | 1015.7 |
| 20260508093058 | 42 | 0 | 0.0 | 0.0 | 0.00 | 0.21 | 0.00 | 96 | 1015.7 |
| 20260508091556 | 43 | 0 | 0.0 | 2.0 | 0.00 | 0.21 | 0.00 | 96 | 1015.6 |
| 20260508090106 | 43 | 23 | 0.0 | 0.0 | 0.00 | 0.21 | 0.00 | 95 | 1015.5 |
| 20260508084553 | 43 | 0 | 0.0 | 0.0 | 0.00 | 0.21 | 0.00 | 95 | 1015.5 |
| 20260508083053 | 44 | 0 | 0.0 | 0.0 | 0.00 | 0.21 | 0.00 | 95 | 1015.5 |
| 20260508081558 | 44 | 0 | 0.0 | 0.0 | 0.00 | 0.21 | 0.00 | 95 | 1015.4 |
| 20260508080053 | 44 | 0 | 0.0 | 0.0 | 0.00 | 0.21 | 0.00 | 95 | 1015.2 |
| 20260508074550 | 44 | 0 | 0.0 | 1.0 | 0.00 | 0.21 | 0.00 | 95 | 1015.1 |
| 20260508073053 | 44 | 0 | 0.0 | 0.0 | 0.00 | 0.21 | 0.00 | 95 | 1015.0 |
| 20260508071552 | 45 | 0 | 0.0 | 1.0 | 0.00 | 0.21 | 0.00 | 95 | 1015.1 |
| 20260508070050 | 45 | 0 | 0.0 | 2.0 | 0.00 | 0.21 | 0.00 | 95 | 1015.0 |
| 20260508064550 | 45 | 0 | 0.0 | 0.0 | 0.00 | 0.21 | 0.00 | 95 | 1014.8 |
| 20260508063054 | 45 | 0 | 0.0 | 2.0 | 0.00 | 0.21 | 0.00 | 95 | 1014.7 |
| 20260508061550 | 45 | 25 | 0.0 | 3.0 | 0.00 | 0.21 | 0.00 | 95 | 1014.7 |
| 20260508060049 | 46 | 0 | 0.0 | 4.0 | 0.00 | 0.21 | 0.00 | 95 | 1014.9 |
| 20260508054609 | 46 | 0 | 0.0 | 1.0 | 0.00 | 0.28 | 0.00 | 95 | 1014.7 |
| 20260508053049 | 46 | 0 | 0.0 | 1.0 | 0.00 | 0.28 | 0.00 | 95 | 1014.6 |
| 20260508051552 | 46 | 0 | 0.0 | 1.0 | 0.00 | 0.28 | 0.00 | 94 | 1014.4 |
| 20260508050050 | 47 | 0 | 0.0 | 0.0 | 0.00 | 0.28 | 0.00 | 94 | 1014.4 |
| 20260508044601 | 47 | 0 | 0.0 | 1.0 | 0.00 | 0.31 | 0.00 | 93 | 1014.3 |
| 20260508043053 | 48 | 0 | 0.0 | 0.0 | 0.00 | 0.31 | 0.00 | 93 | 1014.3 |
| 20260508041558 | 48 | 0 | 0.0 | 0.0 | 0.00 | 0.31 | 0.00 | 93 | 1014.3 |
| 20260508040056 | 48 | 0 | 0.0 | 1.0 | 0.00 | 0.31 | 0.00 | 93 | 1014.2 |
| 20260508034601 | 48 | 0 | 0.0 | 1.0 | 0.00 | 0.31 | 0.31 | 92 | 1014.2 |
| 20260508033052 | 49 | 0 | 0.0 | 2.0 | 0.00 | 0.31 | 0.31 | 92 | 1014.2 |
| 20260508031558 | 49 | 0 | 0.0 | 0.0 | 0.00 | 0.31 | 0.31 | 91 | 1014.0 |
| 20260508030111 | 50 | 0 | 0.0 | 0.0 | 0.00 | 0.31 | 0.31 | 91 | 1014.0 |
| 20260508024553 | 50 | 0 | 0.0 | 0.0 | 0.00 | 0.35 | 0.31 | 91 | 1013.9 |
| 20260508023047 | 51 | 0 | 0.0 | 0.0 | 0.00 | 0.35 | 0.31 | 89 | 1013.7 |
| 20260508021554 | 52 | 0 | 0.0 | 1.0 | 0.00 | 0.35 | 0.31 | 89 | 1013.7 |
| 20260508020050 | 52 | 0 | 0.0 | 0.0 | 0.00 | 0.35 | 0.31 | 87 | 1013.4 |
| 20260508014550 | 53 | 0 | 0.0 | 0.0 | 0.00 | 0.39 | 0.31 | 84 | 1013.1 |
| 20260508013050 | 54 | 0 | 0.0 | 1.0 | 0.00 | 0.39 | 0.31 | 82 | 1012.7 |
| 20260508011557 | 55 | 0 | 0.0 | 0.0 | 0.00 | 0.39 | 0.31 | 79 | 1012.3 |
| 20260508010050 | 56 | 0 | 0.0 | 0.0 | 0.00 | 0.39 | 0.31 | 76 | 1012.2 |
| 20260508004551 | 58 | 0 | 0.0 | 1.0 | 0.00 | 0.49 | 0.31 | 72 | 1012.1 |
| 20260508003101 | 60 | 0 | 0.0 | 1.0 | 0.00 | 0.49 | 0.31 | 66 | 1011.8 |
| 20260508001554 | 61 | 323 | 1.0 | 6.0 | 0.00 | 0.49 | 0.31 | 63 | 1011.7 |
| 20260508000052 | 62 | 285 | 5.0 | 10.0 | 0.00 | 0.49 | 0.31 | 61 | 1011.6 |
| 20260507234550 | 64 | 252 | 3.0 | 12.0 | 0.00 | 0.50 | 0.31 | 59 | 1011.6 |
| 20260507233043 | 66 | 0 | 2.0 | 12.0 | 0.00 | 0.50 | 0.31 | 66 | 1011.4 |
| 20260507231557 | 66 | 346 | 2.0 | 7.0 | 0.00 | 0.50 | 0.31 | 67 | 1011.3 |
| 20260507230054 | 65 | 0 | 1.0 | 6.0 | 0.00 | 0.50 | 0.31 | 69 | 1010.9 |
| 20260507224600 | 65 | 257 | 2.0 | 4.0 | 0.00 | 0.51 | 0.31 | 75 | 1010.6 |
| 20260507223051 | 66 | 41 | 2.0 | 6.0 | 0.00 | 0.51 | 0.31 | 82 | 1010.1 |
| 20260507221550 | 66 | 108 | 1.0 | 7.0 | 0.00 | 0.51 | 0.31 | 83 | 1009.9 |
| 20260507220049 | 65 | 0 | 0.0 | 9.0 | 0.00 | 0.51 | 0.31 | 85 | 1009.8 |
| 20260507214553 | 65 | 67 | 2.0 | 13.0 | 0.00 | 0.51 | 0.31 | 85 | 1009.6 |
| 20260507213051 | 65 | 319 | 2.0 | 8.0 | 0.00 | 0.51 | 0.31 | 85 | 1009.3 |
| 20260507211551 | 65 | 20 | 3.0 | 10.0 | 0.00 | 0.51 | 0.31 | 86 | 1009.1 |
| 20260507210115 | 65 | 36 | 2.0 | 10.0 | 0.00 | 0.51 | 0.31 | 86 | 1009.0 |
| 20260507204557 | 66 | 301 | 5.0 | 11.0 | 0.00 | 0.51 | 0.31 | 85 | 1008.5 |
| 20260507203056 | 66 | 70 | 2.0 | 11.0 | 0.00 | 0.51 | 0.31 | 85 | 1008.5 |
| 20260507201548 | 69 | 139 | 2.0 | 13.0 | 0.00 | 0.51 | 0.31 | 81 | 1008.1 |
| 20260507200055 | 72 | 90 | 4.0 | 13.0 | 0.00 | 0.51 | 0.31 | 77 | 1007.8 |
| 20260507194549 | 79 | 22 | 2.0 | 11.0 | 0.00 | 0.51 | 0.31 | 66 | 1007.6 |
| 20260507193109 | 77 | 26 | 4.0 | 11.0 | 0.00 | 0.51 | 0.31 | 63 | 1007.5 |
| 20260507191557 | 76 | 344 | 3.0 | 8.0 | 0.00 | 0.51 | 0.31 | 67 | 1007.8 |
| 20260507190047 | 76 | 341 | 2.0 | 6.0 | 0.00 | 0.51 | 0.31 | 71 | 1007.9 |
| 20260507184550 | 79 | 97 | 1.0 | 3.0 | 0.00 | 0.51 | 0.31 | 66 | 1007.6 |
| 20260507183059 | 79 | 233 | 1.0 | 3.0 | 0.00 | 0.51 | 0.31 | 70 | 1007.9 |
| 20260507181552 | 79 | 201 | 2.0 | 4.0 | 0.00 | 0.51 | 0.31 | 64 | 1007.9 |
| 20260507180049 | 80 | 216 | 0.0 | 5.0 | 0.00 | 0.51 | 0.31 | 63 | 1008.0 |
| 20260507174546 | 78 | 25 | 3.0 | 8.0 | 0.00 | 0.51 | 0.31 | 67 | 1008.4 |
| 20260507173123 | 77 | 355 | 1.0 | 5.0 | 0.00 | 0.51 | 0.31 | 68 | 1008.2 |
| 20260507171551 | 77 | 124 | 1.0 | 5.0 | 0.00 | 0.51 | 0.31 | 72 | 1008.7 |
| 20260507170053 | 76 | 248 | 1.0 | 4.0 | 0.00 | 0.51 | 0.31 | 73 | 1008.8 |
| 20260507164557 | 75 | 84 | 1.0 | 5.0 | 0.00 | 0.54 | 0.31 | 75 | 1009.2 |
| 20260507163050 | 74 | 297 | 1.0 | 6.0 | 0.00 | 0.54 | 0.31 | 77 | 1009.5 |
| 20260507161605 | 72 | 266 | 0.0 | 3.0 | 0.00 | 0.54 | 0.31 | 80 | 1009.8 |